Location: Bruderhein
(53.8035°N, 112.9265°W)
Time: 13:29:29
(UTC+00:00)

deb Delta 139 - Pass Details

Date: 07 December 2023
Orbit: 731 x 794 km, 98.6° (Epoch: 01 March)

Event Time Altitude Azimuth Distance (km) Brightness Sun altitude
Rises 02:23:56 0° 195° (SSW) 3,255 ? -26.9°
Reaches altitude 10° 02:26:33 10° 207° (SSW) 2,322 ? -27.3°
Maximum altitude 02:30:58 29° 266° (W) 1,395 ? -28.0°
Drops below altitude 10° 02:35:20 10° 326° (NW) 2,301 ? -28.6°
Sets 02:37:56 0° 338° (NNW) 3,220 ? -29.0°
